Showing default

LAPAN A3, 41603

Orbit data source: Space-Track

LAPAN A3, 41603 is a payload satellite owned by LAPAN (ID) in SSO that was launched on Wed, 22 Jun 2016 UTC via a PSLV-XL launch vehicle from the Sirharikota (SRI). Payload-class satellites include a variety of spacecraft equipped with specific instruments for various scientific and technological missions. These include communications satellites like Starlink; space stations such as the ISS; scientific satellites like the Hubble; Earth observation satellites from companies like Planet Labs, Umbra, and HawkEye 360; GPS; miniature CubeSats for education and research; and military/defense satellites.

Loading next visibility...
Identifier
41603, 2016-040E
Orbit
SSO
Country
Flag of UnknownUnknown / INDO
Related business
Manufacturer
LAPAN
Mission
Operational Civil Imaging
Bus & Motor
TUBSAT, Unknown motor
Mass
120 kg wet, 120 kg dry
Launch date (UTC)
2016-06-22 (9 years ago)
Launch vehicle
PSLV-XL
Launch site
Sirharikota (SRI)
Object type
Payload
Rocket body
Debris
Shape & HBR
Box, 0.3 m
Radar Cross Section
0.120 m², Medium (>0.1 m² and < 1m²)

Expand to show TLE details & history
Last TLE update: 10 hours ago

TLE from 10 hours ago
0 LAPAN A3
1 41603U 16040E   25342.57858860  .00006343  00000-0  21063-3 0  9999
2 41603  97.1429 340.2860 0010176 349.6263  10.4767 15.31502020525623
Epoch: 2025-12-08T13:53Z
TLE epoch observation values (Epoch: 2025-12-08T13:53:10.055Z)
Latitude
-0.00004°
Longitude
54.4185°
Altitude
467.588 km
Speed
7.636 km/s
True Right ascension
22h 41m 08s
True Declination
0° 00' 00"
Sunlit
Object was in daylight at epoch
Visualization orbit readout
Latitude
Unknown
Longitude
Unknown
Altitude
Unknown
Speed
Unknown
Apparent Right ascension
Unknown
Apparent Declination
Unknown
Sunlit
N/A
Visualization observer readout
Local Sidereal Time
21:55:58
Azimuth
Unknown
Elevation
Unknown
Doppler factor
Unknown
Orbital elements
Apogee altitude
475.237 km
Perigee altitude
461.303 km
Semi-major axis
6,846.407 km
Eccentricity
0.00102
Inclination
97.1429°
RAAN
340.286°
Arg. of periapsis
349.6263°
True anomaly
10.49793°
Mean anomaly
10.4767°
Eccentric anomaly
10.48731°
Mean motion
3.83133 °/min
Orbital period
93.96 mins
BSTAR
0.00021063
Loading maneuver chart data...
Computing Atmospheric mass density...

Documentation

Showing up to 5 results
|